When you browse on this site, cookies collect data to enhance your experience and personalize the content and advertising you see.
Visit our Privacy Policy to learn more. By continuing to use the site, you agree to this use of cookies and data.
  • In Hungary
  • List of Countries
  • For 7 days
  • Water Temperature
  • Weather Map
  • News
  • Weather Widgets
  • user-avatar
    Login

    Hourly Weather Golyashovo

    Today, 20 January, Monday

    Time Temperature Precipitation Wind Pressure Humidity
    00:00 -1°C° 0 mm 3 mps 755 mmHg 92%
    01:00 -2°C° 0 mm 4 mps 756 mmHg 92%
    02:00 -1°C° 0 mm 4 mps 756 mmHg 94%
    03:00 -2°C° 0 mm 4 mps 756 mmHg 94%
    04:00 -2°C° 0 mm 4 mps 755 mmHg 94%
    05:00 -2°C° 0 mm 4 mps 755 mmHg 94%
    06:00 -2°C° 0 mm 5 mps 755 mmHg 94%
    07:00 -2°C° 0 mm 5 mps 755 mmHg 94%
    08:00 -2°C° 0 mm 5 mps 756 mmHg 93%
    09:00 -2°C° 0 mm 5 mps 756 mmHg 90%
    10:00 -2°C° 0 mm 5 mps 756 mmHg 87%
    11:00 -1°C° 0 mm 5 mps 756 mmHg 84%
    12:00 -1°C° 0 mm 5 mps 756 mmHg 84%
    13:00 -1°C° 0 mm 5 mps 756 mmHg 83%
    14:00 -2°C° 0 mm 6 mps 756 mmHg 83%
    15:00 -2°C° 0 mm 5 mps 755 mmHg 83%
    16:00 -2°C° 0 mm 5 mps 755 mmHg 83%
    17:00 -2°C° 0 mm 5 mps 755 mmHg 83%
    18:00 -2°C° 0 mm 5 mps 754 mmHg 85%
    19:00 -3°C° 0 mm 6 mps 754 mmHg 87%
    20:00 -3°C° 0 mm 6 mps 754 mmHg 89%
    21:00 -3°C° 0 mm 6 mps 753 mmHg 87%
    22:00 -3°C° 0 mm 6 mps 753 mmHg 86%
    23:00 -3°C° 0 mm 6 mps 753 mmHg 84%

    Tomorrow, 21 January, Tuesday

    Time Temperature Precipitation Wind Pressure Humidity
    00:00 -2°C° 0 mm 6 mps 752 mmHg 85%
    01:00 -2°C° 0 mm 6 mps 751 mmHg 85%
    02:00 -2°C° 0 mm 6 mps 751 mmHg 86%
    03:00 -2°C° 0 mm 6 mps 750 mmHg 86%
    04:00 -1°C° 0 mm 6 mps 749 mmHg 87%
    05:00 -1°C° 0 mm 6 mps 748 mmHg 87%
    06:00 -1°C° 0 mm 6 mps 748 mmHg 88%
    07:00 -1°C° 0 mm 7 mps 747 mmHg 89%
    08:00 0°C° 0 mm 7 mps 746 mmHg 90%
    09:00 0°C° 0 mm 7 mps 746 mmHg 90%
    10:00 0°C° 0 mm 7 mps 745 mmHg 91%
    11:00 +2°C° 0 mm 7 mps 745 mmHg 91%
    12:00 +2°C° 0 mm 7 mps 744 mmHg 91%
    13:00 +2°C° 0 mm 7 mps 744 mmHg 91%
    14:00 +3°C° 0 mm 7 mps 743 mmHg 91%
    15:00 +3°C° 0.1 mm 7 mps 742 mmHg 91%
    16:00 +3°C° 0.1 mm 7 mps 741 mmHg 90%
    17:00 +3°C° 0.1 mm 7 mps 740 mmHg 89%
    18:00 +2°C° 0.1 mm 8 mps 740 mmHg 88%
    19:00 +4°C° 0.1 mm 8 mps 740 mmHg 87%
    20:00 +4°C° 0.1 mm 8 mps 740 mmHg 86%
    21:00 +2°C° 0.1 mm 8 mps 740 mmHg 85%
    22:00 +3°C° 0.1 mm 7 mps 739 mmHg 84%
    23:00 +3°C° 0.1 mm 6 mps 739 mmHg 83%

    Day after tomorrow, 22 January, Wednesday

    Time Temperature Precipitation Wind Pressure Humidity
    00:00 +2°C° 0 mm 6 mps 739 mmHg 81%
    01:00 -1°C° 0 mm 6 mps 739 mmHg 79%
    02:00 -2°C° 0 mm 6 mps 739 mmHg 78%
    03:00 -1°C° 0 mm 5 mps 739 mmHg 77%
    04:00 -1°C° 0 mm 5 mps 738 mmHg 77%
    05:00 -2°C° 0 mm 5 mps 737 mmHg 76%
    06:00 -2°C° 0 mm 4 mps 737 mmHg 77%
    07:00 -2°C° 0 mm 4 mps 736 mmHg 78%
    08:00 -2°C° 0 mm 4 mps 735 mmHg 79%
    09:00 -1°C° 0 mm 5 mps 735 mmHg 78%
    10:00 -1°C° 0 mm 5 mps 735 mmHg 76%
    11:00 -2°C° 0 mm 6 mps 735 mmHg 74%
    12:00 -2°C° 0.1 mm 7 mps 735 mmHg 73%
    13:00 -2°C° 0.1 mm 7 mps 734 mmHg 72%
    14:00 -2°C° 0.1 mm 7 mps 734 mmHg 71%
    15:00 -2°C° 0.1 mm 7 mps 734 mmHg 70%
    16:00 -3°C° 0.1 mm 7 mps 734 mmHg 70%
    17:00 -4°C° 0.1 mm 6 mps 734 mmHg 69%
    18:00 -4°C° 0 mm 6 mps 735 mmHg 73%
    19:00 -4°C° 0 mm 7 mps 735 mmHg 78%
    20:00 -4°C° 0 mm 7 mps 736 mmHg 82%
    21:00 -4°C° 0 mm 7 mps 737 mmHg 77%
    22:00 -4°C° 0 mm 7 mps 737 mmHg 73%
    23:00 -4°C° 0 mm 7 mps 738 mmHg 68%

    23 January, Thursday

    Time Temperature Precipitation Wind Pressure Humidity
    00:00 -6°C° 0 mm 7 mps 739 mmHg 66%
    01:00 -6°C° 0 mm 7 mps 739 mmHg 64%
    02:00 -7°C° 0 mm 7 mps 740 mmHg 63%
    03:00 -7°C° 0 mm 7 mps 740 mmHg 60%
    04:00 -7°C° 0 mm 7 mps 741 mmHg 58%
    05:00 -7°C° 0 mm 7 mps 741 mmHg 55%
    06:00 -7°C° 0 mm 7 mps 742 mmHg 54%
    07:00 -6°C° 0 mm 6 mps 743 mmHg 54%
    08:00 -8°C° 0 mm 6 mps 744 mmHg 53%
    09:00 -6°C° 0 mm 6 mps 744 mmHg 51%
    10:00 -6°C° 0 mm 7 mps 745 mmHg 48%
    11:00 -6°C° 0 mm 7 mps 745 mmHg 46%
    12:00 -6°C° 0 mm 7 mps 745 mmHg 47%
    13:00 -4°C° 0 mm 7 mps 746 mmHg 49%
    14:00 -4°C° 0 mm 7 mps 746 mmHg 50%
    15:00 -4°C° 0 mm 7 mps 746 mmHg 53%
    16:00 -5°C° 0 mm 6 mps 746 mmHg 57%
    17:00 -5°C° 0 mm 5 mps 746 mmHg 61%
    18:00 -4°C° 0 mm 4 mps 747 mmHg 65%
    19:00 -4°C° 0 mm 4 mps 747 mmHg 69%
    20:00 -4°C° 0 mm 4 mps 747 mmHg 74%
    21:00 -4°C° 0 mm 4 mps 748 mmHg 77%
    22:00 -4°C° 0 mm 4 mps 748 mmHg 80%
    23:00 -4°C° 0 mm 4 mps 748 mmHg 84%

    24 January, Friday

    Time Temperature Precipitation Wind Pressure Humidity
    00:00 -4°C° 0 mm 4 mps 747 mmHg 83%
    01:00 -4°C° 0 mm 4 mps 747 mmHg 83%
    02:00 -5°C° 0 mm 5 mps 747 mmHg 83%
    03:00 -4°C° 0 mm 5 mps 746 mmHg 81%
    04:00 -4°C° 0 mm 6 mps 745 mmHg 78%
    05:00 -4°C° 0 mm 6 mps 745 mmHg 76%
    06:00 -4°C° 0 mm 6 mps 745 mmHg 77%
    07:00 -4°C° 0 mm 6 mps 744 mmHg 79%
    08:00 -2°C° 0 mm 5 mps 744 mmHg 80%
    09:00 -3°C° 0 mm 6 mps 744 mmHg 82%
    10:00 -2°C° 0 mm 6 mps 744 mmHg 84%
    11:00 -2°C° 0 mm 6 mps 743 mmHg 86%
    12:00 -2°C° 0 mm 6 mps 743 mmHg 86%
    13:00 -1°C° 0 mm 6 mps 743 mmHg 86%
    14:00 -1°C° 0 mm 7 mps 743 mmHg 86%
    15:00 -1°C° 0 mm 7 mps 743 mmHg 85%
    16:00 -1°C° 0 mm 7 mps 743 mmHg 84%
    17:00 -2°C° 0 mm 6 mps 743 mmHg 84%
    18:00 -2°C° 0 mm 6 mps 742 mmHg 83%
    19:00 -2°C° 0 mm 6 mps 742 mmHg 82%
    20:00 -2°C° 0 mm 6 mps 742 mmHg 82%
    21:00 -2°C° 0 mm 6 mps 742 mmHg 81%
    22:00 -2°C° 0 mm 6 mps 742 mmHg 80%
    23:00 -2°C° 0 mm 6 mps 742 mmHg 79%

    25 January, Saturday

    Time Temperature Precipitation Wind Pressure Humidity
    00:00 -2°C° 0 mm 6 mps 741 mmHg 80%
    01:00 -1°C° 0 mm 5 mps 741 mmHg 81%
    02:00 -1°C° 0 mm 5 mps 741 mmHg 82%
    03:00 -1°C° 0 mm 5 mps 741 mmHg 82%
    04:00 -1°C° 0 mm 5 mps 741 mmHg 82%
    05:00 -2°C° 0 mm 5 mps 741 mmHg 82%
    06:00 -2°C° 0 mm 5 mps 741 mmHg 83%
    07:00 -2°C° 0 mm 4 mps 741 mmHg 84%
    08:00 -2°C° 0 mm 4 mps 741 mmHg 85%
    09:00 -2°C° 0 mm 4 mps 741 mmHg 85%
    10:00 -2°C° 0 mm 4 mps 741 mmHg 86%
    11:00 -2°C° 0 mm 4 mps 741 mmHg 86%
    12:00 -2°C° 0 mm 4 mps 741 mmHg 88%
    13:00 -2°C° 0 mm 4 mps 741 mmHg 89%
    14:00 -2°C° 0 mm 4 mps 741 mmHg 91%
    15:00 -1°C° 0 mm 3 mps 741 mmHg 91%
    16:00 -1°C° 0 mm 3 mps 741 mmHg 92%
    17:00 -1°C° 0 mm 3 mps 741 mmHg 92%
    18:00 -1°C° 0 mm 3 mps 741 mmHg 93%
    19:00 -1°C° 0 mm 3 mps 742 mmHg 94%
    20:00 -1°C° 0 mm 3 mps 742 mmHg 94%
    21:00 -1°C° 0 mm 3 mps 742 mmHg 95%
    22:00 -1°C° 0 mm 2 mps 742 mmHg 95%
    23:00 -1°C° 0 mm 2 mps 742 mmHg 96%
    Show more